Flag for U.S.A. Weather past 2 weeks in Salt Lake City, Utah, U.S.A.

Now
57 °F

Passing clouds.


Feels Like: 56 °F
Forecast: 44 / 66 °F
Wind: 6 mph from South

Location: Salt Lake City International Airport

Current Time: Apr 19, 2015 at 10:36:13 AM

Latest Report: Apr 19, 2015 at 9:53 AM


Visibility: 10 mi

Pressure: 29.99 "Hg

Humidity: 37%

Dew point: 31 °F

Location of Salt Lake CityLocation

Historic Weather in Salt Lake City — Graph

°F

Salt Lake City temperature yesterday

Maximum temperature yesterday: 66 °F (at 4:53 PM)
Minimum temperature yesterday: 42 °F (at 6:53 AM)
Average temperature yesterday: 55 °F

Past Weeks' High & Low Weather Summary

 TemperatureHumidityPressure
High76 °F (Apr 14, 1:53 PM)100% (Apr 14, 8:53 PM)30.18 "Hg (Apr 14, 8:53 PM)
Low29 °F (Apr 15, 6:53 AM)8% (Apr 4, 1:53 PM)29.42 "Hg (Apr 5, 5:53 PM)
Average51 °F46%29.89 "Hg
* Reported Apr 4 8:53 AM — Apr 19 8:53 AM, Salt Lake City, Weather by CustomWeather, © 2015

Note: Actual official high and low records may vary slightly from our data, if they occured in-between our weather recording intervals... More about our weather records

Advertising

Salt Lake City weather history for previous 24 hours

 ConditionsComfort  
Time TempWeatherWind HumidityBarometerVisibility
8:53 AM
Sun, Apr 19
53 °FPassing clouds.9 mph48%30.00 "Hg10 mi
7:53 AM48 °FPassing clouds.8 mph59%30.00 "Hg10 mi
6:53 AM44 °FPassing clouds.7 mph65%29.99 "Hg10 mi
5:53 AM46 °FClear.8 mph63%29.97 "Hg10 mi
4:53 AM46 °FClear.5 mph63%29.97 "Hg10 mi
3:53 AM46 °FClear.7 mph66%29.96 "Hg10 mi
2:53 AM49 °FClear.6 mph61%29.95 "Hg10 mi
1:53 AM47 °FClear.6 mph66%29.96 "Hg10 mi
12:53 AM52 °FClear.3 mph50%29.93 "Hg10 mi
11:53 PM
Sat, Apr 18
53 °FClear.5 mph52%29.93 "Hg10 mi
10:53 PM56 °FClear.3 mph49%29.91 "Hg10 mi
9:53 PM57 °FClear.No wind46%29.91 "Hg10 mi
8:53 PM59 °FPassing clouds.3 mph41%29.89 "Hg10 mi
7:53 PM63 °FPassing clouds.7 mph28%29.89 "Hg10 mi
6:53 PM66 °FPassing clouds.7 mph25%29.90 "Hg10 mi
5:53 PM66 °FPassing clouds.8 mph26%29.89 "Hg10 mi
4:53 PM66 °FPassing clouds.10 mph27%29.90 "Hg10 mi
3:53 PM65 °FPassing clouds.14 mph29%29.91 "Hg10 mi
2:53 PM63 °FPassing clouds.13 mph35%29.93 "Hg10 mi
1:53 PM62 °FPassing clouds.8 mph37%29.94 "Hg10 mi
12:53 PM61 °FPassing clouds.12 mph42%29.95 "Hg10 mi
11:53 AM60 °FPassing clouds.10 mph42%29.96 "Hg10 mi
10:53 AM59 °FSunny.3 mph44%29.96 "Hg10 mi
Weather by CustomWeather, © 2015

See weather overviewHow to use our weather pages